Regional Weather Roundup
Issued by NWS

Home | Current Version | Previous Version | Text Only | Print | Product List | Glossary Off
Versions: 1 2 3 4 5 6 7 8 9 10 11 12 13 14 15 16 17 18 19 20 21 22 23 24 25 26 27 28 29 30 31 32 33 34 35 36 37 38 39 40 41 42 43 44 45 46 47 48 49 50

000
ASUS43 KIND 181500
RWRIN

WEATHER ROUNDUP FOR INDIANA
NATIONAL WEATHER SERVICE INDIANAPOLIS IN
1100 AM EDT FRI AUG 18 2017

NOTE: "FAIR" INDICATES FEW OR NO CLOUDS BELOW 12,000 FEET WITH NO
SIGNIFICANT WEATHER AND/OR OBSTRUCTIONS TO VISIBILITY.

* - STATION DOES NOT REPORT WEATHER SUCH AS PRECIPITATION OR FOG.

+ - STATION NOT QUALITY CONTROLLED BY THE NATIONAL WEATHER SERVICE.
    USE DATA WITH CAUTION...ESPECIALLY DEWPOINT AND RELATIVE
    HUMIDITY OBSERVATIONS.

INZ001>003-010>013-019-020-181600-
NORTHWEST INDIANA

CITY           SKY/WX    TMP DP  RH WIND       PRES   REMARKS
GARY /AIRPORT/ CLOUDY    73  63  68 W14       29.88R
MICHIGAN CITY+ CLOUDY    70  61  73 NW8       29.88R
MONTICELLO +   MOSUNNY   74  64  71 W9        29.90R
RENSSELAER +   CLOUDY    72  61  68 SW12      29.91R
VALPARAISO     PTSUNNY   73  64  73 W8        29.88R

$$

LMZ046-743>745-181600-
SOUTHERN LAKE MICHIGAN

STATION/POSITION TIME  TEMP    WIND        PRES    WAVE
                       AIR SEA DIR/SP/G            HT
                 (UTC) (F)     (DEG/KT/KT) (MB)    (FT)
BURNS HARBOR     1440   70     280/ 12/ 14 1011.9R
MICHIGAN CITY    1430   70     270/ 13/ 15   N/A
5NW MICH CITY    1450   70 74  300/ 14/ 16   N/A     4

$$

INZ004-005-014>016-021>024-181600-
NORTH CENTRAL INDIANA

CITY           SKY/WX    TMP DP  RH WIND       PRES   REMARKS
ELKHART        CLOUDY    72  61  68 W15       29.85R
GOSHEN         CLOUDY    71  61  70 NW13      29.86R
PERU/GRISSOM   PTSUNNY   73  67  79 W10       29.89R
SOUTH BEND     CLOUDY    70  64  81 W8        29.86R
WARSAW +       CLOUDY    72  63  73 W15       29.87R

$$

INZ006>009-017-018-025>027-181600-
NORTHEAST INDIANA

CITY           SKY/WX    TMP DP  RH WIND       PRES   REMARKS
FORT WAYNE     MOSUNNY   74  64  71 W14       29.86R
KENDALLVILLE + CLOUDY    71  63  75 W9        29.85R

$$

INZ028-029-035-036-043>045-051>053-181600-
WEST CENTRAL INDIANA

CITY           SKY/WX    TMP DP  RH WIND       PRES   REMARKS
LAFAYETTE      MOSUNNY   74  66  76 W10       29.91R
TERRE HAUTE    SUNNY     79  64  60 W7        29.94R

$$

INZ030>032-037>040-046>048-054>057-064-065-181600-
CENTRAL INDIANA

CITY           SKY/WX    TMP DP  RH WIND       PRES   REMARKS
ANDERSON       MOSUNNY   75  64  69 MISG      29.91
COLUMBUS       SUNNY     77  64  65 W9        29.92F
GREENWOOD *+   SUNNY     76  62  62 W9        29.93R
INDIANAPOLIS   MOSUNNY   77  64  64 W10       29.91R
-EAGLE CREEK   MOSUNNY   76  63  64 W12       29.91R
KOKOMO +       MOSUNNY   74  66  76 W14       29.90R
MT COMFORT *+  SUNNY     75  64  69 W9        29.91R
SHELBYVILLE    SUNNY     78  64  61 W9        29.91R

$$

INZ033-034-041-042-049-050-058-059-181600-
EAST CENTRAL INDIANA

CITY           SKY/WX    TMP DP  RH WIND       PRES   REMARKS
MUNCIE         MOSUNNY   78  65  63 W8        29.89R
RICHMOND +     SUNNY     73  64  73 W8        29.92S

$$

INZ060-061-067>069-081>083-085>088-181600-
SOUTHWEST INDIANA

CITY           SKY/WX    TMP DP  RH WIND       PRES   REMARKS
EVANSVILLE     SUNNY     78  66  66 W8        29.97R
HUNTINGBURG +  MOSUNNY   77  69  76 SW6       29.97R

$$

INZ062-063-066-070>080-084-089>092-181600-
SOUTH CENTRAL AND SOUTHEAST INDIANA

CITY           SKY/WX    TMP DP  RH WIND       PRES   REMARKS
BLOOMINGTON    SUNNY     78  63  59 VRB5      29.94R
MADISON *+     MOSUNNY   79  66  65 W5        29.95R
SEYMOUR +      SUNNY     79  66  65 W6        29.93R

$$





USA.gov is the U.S. government's official web portal to all federal, state and local government web resources and services.